Regional Weather Roundup
Issued by NWS

Home | Current Version | Previous Version | Text Only | Print | Product List | Glossary Off
Versions: 1 2 3 4 5 6 7 8 9 10 11 12 13 14 15 16 17 18 19 20 21 22 23 24 25 26 27

000
ASUS45 KBOU 151007
RWRCO

WEATHER ROUNDUP FOR COLORADO
NATIONAL WEATHER SERVICE DENVER/BOULDER CO
300 AM MST SUN JAN 15 2017

NOTE: "FAIR" INDICATES FEW OR NO CLOUDS BELOW 12000 FEET WITH NO
SIGNIFICANT WEATHER AND/OR OBSTRUCTIONS TO VISIBILITY.

COZ001>005-013-030-031-151100-
...NORTHWEST COLORADO...

CITY           SKY/WX    TMP DP  RH WIND       PRES   REMARKS
CRAIG          CLOUDY    27  24  89 N6        30.15F WCI  20
HAYDEN         CLOUDY    25  21  86 NE6       30.13F WCI  18
MEEKER         CLOUDY    30  26  85 NE9       30.12F WCI  22
MOUNT WERNER   NOT AVBL
STEAMBOAT SPGS CLOUDY    22  21  95 NW5       30.13S WCI  16
WALDEN           N/A    N/A N/A N/A CALM      30.15F VSB 1/2
$$

COZ006>008-011-151100-
...WEST CENTRAL VALLEYS...

CITY           SKY/WX    TMP DP  RH WIND       PRES   REMARKS
GRAND JUNCTION CLOUDY    35  35 100 S6        30.07S WCI  30
MONTROSE       FOG       32  32 100 CALM      30.10R VSB 1
EAGLE          CLOUDY    29  26  89 E6        30.14S WCI  23
RIFLE          FAIR      30  29  96 E3        30.10S
DELTA          CLOUDY    37  36  96 CALM      30.10S FOG
NUCLA          CLOUDY    34  34 100 CALM      30.08F
$$

COZ017>023-064>068-151100-
...SOUTHWEST COLORADO...

CITY           SKY/WX    TMP DP  RH WIND       PRES   REMARKS
DURANGO        LGT RAIN  35  33  92 E8        30.05F WCI  29
CORTEZ         MOCLDY    42  37  82 W8        29.99F
PAGOSA SPRINGS LGT SNOW  34  34 100 CALM      30.09S VSB 1
TELLURIDE      CLOUDY    35  28  75 E7        30.08S WCI  29
WOLF CREEK PAS CLOUDY    23  23 100 CALM      30.18F
$$

COZ009-010-012-014-032>034-037-058>063-151100-
...CENTRAL COLORADO...

CITY           SKY/WX    TMP DP  RH WIND       PRES   REMARKS
ASPEN          CLOUDY    25  25 100 CALM      30.09R
BUENA VISTA    CLOUDY    30  27  90 CALM      30.14R
COPPER MTN     NOT AVBL
BERTHOUD PASS  NOT AVBL
COTTONWOOD PAS NOT AVBL
GUNNISON       FOG       16  14  92 NE6       30.14R VSB 1/2 WCI   7
KREMMLING      FOG      N/A N/A N/A SE3       30.16F VSB 1/4
LEADVILLE      CLOUDY    24  21  88 CALM      30.12F
MONARCH PASS   CLOUDY    27  23  86 CALM      30.26R
SALIDA         CLOUDY    32  31  95 CALM      30.20F
SUNLIGHT       FOG       25  23  93 SE3       30.15R VSB 1
WILKERSON PASS NOT AVBL
$$

COZ069>075-151100-
...SAN LUIS VALLEY/SANGRE DE CRISTO MOUNTAINS...

CITY           SKY/WX    TMP DP  RH WIND       PRES   REMARKS
ALAMOSA        CLOUDY    25  23  92 CALM      30.08F
LA VETA PASS   NOT AVBL
SAGUACHE       MOCLDY    28  25  86 NW14      30.09F WCI  17
$$

COZ035-036-038>040-151100-
...NORTHERN COLORADO FRONT RANGE...

CITY           SKY/WX    TMP DP  RH WIND       PRES   REMARKS
DENVER INTL AP MOCLDY    24  21  88 W5        30.12F FOG     WCI  18
DMNS CITY PARK   N/A     26  26  99 SE7       30.14R WCI  18
AURORA         MOCLDY    25  24  99 W5        30.12F FOG     WCI  19
FRONT RANGE AP FAIR      28  25  86 W5        30.12F FOG     WCI  23
ERIE MUNI ARPT FAIR      22  21  95 S3        30.14S FOG
BOULDER MUN AP FAIR      28  27  93 CALM      30.13F
CENTENNIAL     MOCLDY    23  22  96 CALM      30.12F FOG
BROOMFIELD     FAIR      30  28  93 CALM      30.13F FOG
FORT COLLINS   FAIR      27  25  93 CALM      30.15F
LONGMONT       FAIR      25  23  90 CALM      30.16S FOG
$$

COZ041-046-047-076>085-087-088-151100-
...PIKES PEAK/PALMER DIVIDE AND SOUTHERN FOOTHILLS...

CITY           SKY/WX    TMP DP  RH WIND       PRES   REMARKS
COLO. SPRINGS  MOCLDY    27  21  78 CALM      30.12R
A. F. ACADEMY  FAIR      26  22  85 N9        30.10R WCI  16
SCHRIEVER AFB  NOT AVBL
ELLICOTT       FAIR     N/A N/A N/A S7        30.10R
FALCON         MOCLDY    28  23  81 N5        30.13R WCI  23
FORT CARSON    MOCLDY    28  23  80 NE3       30.11S
LIMON          FAIR      22  21  96 CALM      30.11F
MONUMENT HILL  FAIR      23  21  93 SW3       30.13R FOG
TRINIDAD       LGT RAIN  32  28  85 E6        30.12S FOG     WCI  26
$$

COZ042>045-048>051-090-091-151100-
...NORTHEAST COLORADO...

CITY           SKY/WX    TMP DP  RH WIND       PRES   REMARKS
GREELEY ARPT   FAIR      22  21  96 NW5       30.16F WCI  16
AKRON          FAIR      23  17  78 W8        30.13F WCI  14
BURLINGTON     CLOUDY    33  25  72 S10       30.18R WCI  25
WRAY           NOT AVBL
STERLING       FAIR      23  21  93 N3        30.15F
HOLYOKE        FAIR      21  19  93 N5        30.18F WCI  15
FORT MORGAN    FAIR      25  21  85 N8        30.14F WCI  16
$$

COZ086-089-092>099-151100-
...SOUTHEAST COLORADO...

CITY           SKY/WX    TMP DP  RH WIND       PRES   REMARKS
PUEBLO         FAIR      26  22  84 CALM      30.15R
LA JUNTA       CLOUDY    32  25  75 CALM      30.16F
LAMAR          MIX PCPN  31  27  85 NE6       30.16F FOG     WCI  25
SPRINGFIELD      N/A     30  30 100 CALM      30.15S
$$




USA.gov is the U.S. government's official web portal to all federal, state and local government web resources and services.